Regional Weather Roundup
Issued by NWS

Home | Current Version | Previous Version | Graphics & Text | Print | Product List | Glossary On
Versions: 1 2 3 4 5 6 7 8 9 10 11 12 13 14 15 16 17 18 19 20 21 22 23 24 25 26 27 28 29 30 31 32 33 34 35 36 37 38 39 40 41 42 43 44 45 46 47 48 49 50
000
ASUS44 KMEG 050510
RWRTN
TENNESSEE HOURLY STATE WEATHER ROUNDUP
NATIONAL WEATHER SERVICE MEMPHIS TN
1200 AM CDT SAT SEP 05 2015

TNZ002-004-019-021-049-052-054-088>092-050600-
WEST TENNESSEE

CITY           SKY/WX    TMP DP  RH WIND       PRES   REMARKS
MEMPHIS INTL   PTCLDY    81  72  74 CALM      30.02S
NWS MEMPHIS      N/A     77 N/A N/A MISG        N/A
JACKSON        CLEAR     72  70  93 CALM      30.04R
DYERSBURG      CLEAR     73  72  94 CALM      30.04S
UNION CITY     CLEAR    N/A N/A N/A CALM      30.03S
PARIS          CLEAR     68  66  94 CALM      30.06S
LEXINGTON      CLEAR     70  70 100 CALM      30.03F
$$

TNZ008-025-027-028-033-062-065-066-050600-
NORTH MIDDLE TENNESSEE

CITY           SKY/WX    TMP DP  RH WIND       PRES   REMARKS
NASHVILLE      CLEAR     75  67  76 CALM      30.06S
CLARKSVILLE    CLEAR     73  68  84 CALM      30.05S
SMYRNA         CLEAR    N/A N/A N/A CALM      30.06S
COOKEVILLE     CLEAR     68  66  94 CALM      30.07F
CROSSVILLE     CLEAR     69  65  86 CALM      30.13S
$$

TNZ061-075-076-078-094-096-097-050600-
SOUTH MIDDLE TENNESSEE

CITY           SKY/WX    TMP DP  RH WIND       PRES   REMARKS
FAYETTEVILLE   CLEAR     72  70  94 CALM      30.06S
TULLAHOMA      CLEAR     70  68  94 CALM      30.09S
WINCHESTER     CLEAR     68  66  94 CALM      30.07S
MCMINNVILLE    CLEAR     72  72 100 CALM      30.08S
COLUMBIA       CLEAR     73  73 100 CALM      30.04F
SHELBYVILLE    CLEAR     73  72  94 CALM      30.07S
$$

TNZ017-018-042-046-047-050600-
NORTHEAST TENNESSEE

CITY           SKY/WX    TMP DP  RH WIND       PRES   REMARKS
TRI CITIES     PTCLDY    69  65  86 CALM      30.12R
ELIZABETHTON   CLEAR     66  61  82 N5        30.14R
$$

TNZ012-013-036-069-073-074-050600-
CENTRAL EAST TENNESSEE

CITY           SKY/WX    TMP DP  RH WIND       PRES   REMARKS
KNOXVILLE      PTCLDY    74  68  81 CALM      30.05S
OAK RIDGE      CLEAR     73  69  87 CALM      30.08S
GATLINBURG     CLEAR     70  64  83 CALM      30.07R
MORRISTOWN     CLEAR     73  64  73 E7        30.11R
$$

TNZ083-085-099-050600-
SOUTHEAST TENNESSEE

CITY           SKY/WX    TMP DP  RH WIND       PRES   REMARKS
CHATTANOOGA    CLEAR     74  69  85 CALM      30.05R
$$

SKY/WX REPORTED AS FAIR MEANS FEW OR NO CLOUDS BELOW
12 THOUSAND FEET.




USA.gov is the U.S. government's official web portal to all federal, state and local government web resources and services.